This is the latest recevied weather packets stored in our database for station/object KM4RT-13. If no packets are shown the sender has not sent any weather packets the latest 10 day(s).
| Time | Temp. | Humidity | Pressure | Rain* | Wind** | Luminosity | Snow |
|---|---|---|---|---|---|---|---|
| 1777584676 | 17.22° C | 49% | 1012.9 hPa | 0 mm | - | 206 W/m² | - |
| 1777584373 | 17.22° C | 48% | 1012.8 hPa | 0 mm | - | 199 W/m² | - |
| 1777584070 | 17.22° C | 49% | 1013.1 hPa | 0 mm | - | 212 W/m² | - |
| 1777583764 | 17.22° C | 51% | 1013.1 hPa | 0 mm | - | 220 W/m² | - |
| 1777583464 | 17.22° C | 51% | 1013.1 hPa | 0 mm | - | 240 W/m² | - |
| 1777583162 | 17.22° C | 49% | 1013.3 hPa | 0 mm | - | 241 W/m² | - |
| 1777582859 | 17.22° C | 49% | 1013.5 hPa | 0 mm | - | 238 W/m² | - |
| 1777582555 | 17.22° C | 49% | 1013.2 hPa | 0 mm | - | 266 W/m² | - |
| 1777582251 | 17.22° C | 48% | 1013.6 hPa | 0 mm | - | 300 W/m² | - |
| 1777581949 | 17.78° C | 52% | 1013.6 hPa | 0 mm | - | 274 W/m² | - |
| 1777581644 | 17.22° C | 49% | 1013.6 hPa | 0 mm | - | 264 W/m² | - |
| 1777581338 | 17.22° C | 50% | 1013.7 hPa | 0 mm | - | 277 W/m² | - |
| 1777581033 | 17.22° C | 48% | 1013.7 hPa | 0 mm | - | 328 W/m² | - |
| 1777580732 | 17.22° C | 50% | 1013.7 hPa | 0 mm | - | 370 W/m² | - |
| 1777580429 | 17.22° C | 49% | 1013.6 hPa | 0 mm | - | 300 W/m² | - |
| 1777580125 | 17.22° C | 48% | 1013.8 hPa | 0 mm | - | 375 W/m² | - |
| 1777579821 | 17.22° C | 46% | 1013.8 hPa | 0 mm | - | 319 W/m² | - |
| 1777579520 | 17.78° C | 47% | 1013.7 hPa | 0 mm | - | 363 W/m² | - |
| 1777579215 | 17.22° C | 50% | 1013.8 hPa | 0 mm | - | 375 W/m² | - |
| 1777578910 | 17.78° C | 46% | 1014.1 hPa | 0 mm | - | 296 W/m² | - |
| 1777578606 | 17.22° C | 47% | 1014.2 hPa | 0 mm | - | 293 W/m² | - |
| 1777578300 | 17.22° C | 48% | 1014 hPa | 0 mm | - | 311 W/m² | - |
| 1777577996 | 17.22° C | 49% | 1014.1 hPa | 0 mm | - | 346 W/m² | - |
| 1777577691 | 17.22° C | 47% | 1014.1 hPa | 0 mm | - | 444 W/m² | - |
| 1777577389 | 17.22° C | 48% | 1014.2 hPa | 0 mm | - | 393 W/m² | - |
* Rain latest hour (hover to see other rain measurements)
** Current wind speed in m/s (hover to see current wind gust speed)